Location: Home
(42.5358°N, 72.7383°W)
Time: 21:56:59
(UTC-05:00)

Vanguard 2 - Pass Details

Date: 08 December 2021
Orbit: 553 x 2936 km, 32.9° (Epoch: 20 January)

Event Time Altitude Azimuth Distance (km) Brightness Sun altitude
Rises 14:10:15 0° 254° (WSW) 2,857 11.3 16.4°
Reaches altitude 10° 14:12:29 10° 241° (WSW) 2,084 11.2 16.1°
Maximum altitude 14:16:34 29° 181° (S) 1,464 10.1 15.7°
Drops below altitude 10° 14:22:17 10° 124° (SE) 2,969 10.6 15.1°
Sets 14:26:08 0° 115° (ESE) 4,346 11.2 14.6°
